| time (UTC) | temp C | wind direction | speed KPH | gust KPH | rain 1hr cm | rain 24hr cm | rain mn cm | humidity % | barometer mb |
| 20260905143504 | 14 | 36 | 9.7 | 16.1 | 0.00 | 0.00 | 0.00 | 52 | 1010.6 |
| 20260905143005 | 14 | 30 | 11.3 | 20.9 | 0.00 | 0.00 | 0.00 | 52 | 1010.5 |
| 20260905142504 | 14 | 24 | 11.3 | 20.9 | 0.00 | 0.00 | 0.00 | 52 | 1010.5 |
| 20260905142005 | 14 | 49 | 8.0 | 19.3 | 0.00 | 0.00 | 0.00 | 52 | 1010.5 |
| 20260905141504 | 13 | 36 | 9.7 | 16.1 | 0.00 | 0.00 | 0.00 | 53 | 1010.5 |
| 20260905140005 | 13 | 23 | 8.0 | 19.3 | 0.00 | 0.00 | 0.00 | 55 | 1010.3 |
| 20260905135508 | 13 | 17 | 8.0 | 14.5 | 0.00 | 0.00 | 0.00 | 56 | 1010.3 |
| 20260905135004 | 13 | 15 | 6.4 | 14.5 | 0.00 | 0.00 | 0.00 | 56 | 1010.3 |
| 20260905134004 | 12 | 23 | 8.0 | 16.1 | 0.00 | 0.00 | 0.00 | 56 | 1010.0 |
| 20260905133005 | 12 | 15 | 9.7 | 16.1 | 0.00 | 0.00 | 0.00 | 56 | 1010.0 |
| 20260905132504 | 12 | 29 | 8.0 | 14.5 | 0.00 | 0.00 | 0.00 | 57 | 1009.9 |
| 20260905131005 | 11 | 45 | 8.0 | 12.9 | 0.00 | 0.00 | 0.00 | 59 | 1009.6 |
| 20260905130004 | 11 | 25 | 8.0 | 14.5 | 0.00 | 0.00 | 0.00 | 58 | 1009.3 |
| 20260905125005 | 11 | 33 | 8.0 | 14.5 | 0.00 | 0.00 | 0.00 | 58 | 1009.2 |
| 20260905124505 | 12 | 37 | 8.0 | 16.1 | 0.00 | 0.00 | 0.00 | 58 | 1009.1 |
| 20260905124005 | 11 | 46 | 8.0 | 16.1 | 0.00 | 0.00 | 0.00 | 58 | 1009.1 |
| 20260905123504 | 11 | 57 | 6.4 | 12.9 | 0.00 | 0.00 | 0.00 | 58 | 1009.0 |
| 20260905123004 | 11 | 34 | 8.0 | 12.9 | 0.00 | 0.00 | 0.00 | 58 | 1008.8 |
| 20260905122504 | 12 | 31 | 6.4 | 14.5 | 0.00 | 0.00 | 0.00 | 57 | 1008.8 |
| 20260905121504 | 12 | 36 | 8.0 | 16.1 | 0.00 | 0.00 | 0.00 | 56 | 1008.6 |
| 20260905121005 | 12 | 33 | 8.0 | 16.1 | 0.00 | 0.00 | 0.00 | 55 | 1008.5 |
| 20260905120005 | 12 | 31 | 9.7 | 19.3 | 0.00 | 0.00 | 0.00 | 55 | 1008.3 |
| 20260905115004 | 12 | 29 | 8.0 | 19.3 | 0.00 | 0.00 | 0.00 | 54 | 1008.0 |
| 20260905114504 | 12 | 29 | 9.7 | 19.3 | 0.00 | 0.00 | 0.00 | 54 | 1007.9 |
| 20260905114005 | 12 | 29 | 11.3 | 19.3 | 0.00 | 0.00 | 0.00 | 54 | 1008.0 |
| 20260905113505 | 12 | 48 | 8.0 | 16.1 | 0.00 | 0.00 | 0.00 | 54 | 1008.0 |
| 20260905113004 | 12 | 31 | 8.0 | 16.1 | 0.00 | 0.00 | 0.00 | 54 | 1007.9 |
| 20260905112504 | 12 | 42 | 4.8 | 14.5 | 0.00 | 0.00 | 0.00 | 54 | 1007.9 |
| 20260905112005 | 12 | 44 | 6.4 | 9.7 | 0.00 | 0.00 | 0.00 | 54 | 1007.8 |
| 20260905111004 | 12 | 41 | 4.8 | 9.7 | 0.00 | 0.00 | 0.00 | 56 | 1007.4 |
| 20260905105505 | 12 | 29 | 3.2 | 9.7 | 0.00 | 0.00 | 0.00 | 55 | 1007.2 |
| 20260905104505 | 12 | 48 | 8.0 | 14.5 | 0.00 | 0.00 | 0.00 | 55 | 1007.0 |
| 20260905104005 | 12 | 27 | 8.0 | 14.5 | 0.00 | 0.00 | 0.00 | 54 | 1007.1 |
| 20260905103505 | 12 | 53 | 8.0 | 14.5 | 0.00 | 0.00 | 0.00 | 54 | 1007.0 |
| 20260905102505 | 13 | 43 | 9.7 | 16.1 | 0.00 | 0.00 | 0.00 | 53 | 1007.0 |
| 20260905102005 | 13 | 59 | 8.0 | 19.3 | 0.00 | 0.00 | 0.00 | 53 | 1007.1 |
| 20260905101504 | 13 | 66 | 8.0 | 19.3 | 0.00 | 0.00 | 0.00 | 53 | 1007.0 |
| 20260905101004 | 13 | 53 | 9.7 | 16.1 | 0.00 | 0.00 | 0.00 | 52 | 1006.8 |
| 20260905095505 | 13 | 78 | 8.0 | 19.3 | 0.00 | 0.00 | 0.00 | 51 | 1007.1 |
| 20260905094504 | 13 | 64 | 9.7 | 16.1 | 0.00 | 0.00 | 0.00 | 52 | 1007.1 |
| 20260905093505 | 13 | 98 | 9.7 | 12.9 | 0.00 | 0.00 | 0.00 | 52 | 1007.3 |
| 20260905093004 | 13 | 86 | 6.4 | 14.5 | 0.00 | 0.00 | 0.00 | 52 | 1007.3 |
| 20260905092504 | 13 | 78 | 9.7 | 14.5 | 0.00 | 0.00 | 0.00 | 53 | 1007.1 |
| 20260905092004 | 13 | 84 | 9.7 | 14.5 | 0.00 | 0.00 | 0.00 | 52 | 1007.1 |
| 20260905091504 | 13 | 76 | 9.7 | 12.9 | 0.00 | 0.00 | 0.00 | 52 | 1007.0 |
| 20260905091004 | 13 | 66 | 8.0 | 9.7 | 0.00 | 0.00 | 0.00 | 53 | 1006.9 |
| 20260905090005 | 13 | 53 | 4.8 | 14.5 | 0.00 | 0.00 | 0.00 | 52 | 1006.8 |
| 20260905085504 | 13 | 77 | 11.3 | 14.5 | 0.00 | 0.00 | 0.00 | 52 | 1006.8 |
| 20260905085004 | 13 | 84 | 11.3 | 14.5 | 0.00 | 0.00 | 0.00 | 52 | 1006.8 |
| 20260905084504 | 14 | 86 | 4.8 | 16.1 | 0.00 | 0.00 | 0.00 | 51 | 1006.8 |
| 20260905084005 | 14 | 56 | 9.7 | 19.3 | 0.00 | 0.00 | 0.00 | 50 | 1006.5 |
| 20260905083504 | 14 | 48 | 9.7 | 19.3 | 0.00 | 0.00 | 0.00 | 50 | 1006.4 |
| 20260905083004 | 14 | 58 | 11.3 | 19.3 | 0.00 | 0.00 | 0.00 | 50 | 1006.4 |
| 20260905082504 | 14 | 38 | 9.7 | 16.1 | 0.00 | 0.00 | 0.00 | 50 | 1006.2 |
| 20260905081505 | 15 | 51 | 8.0 | 14.5 | 0.00 | 0.00 | 0.00 | 49 | 1006.6 |
| 20260905081004 | 15 | 40 | 9.7 | 14.5 | 0.00 | 0.00 | 0.00 | 49 | 1006.5 |
| 20260905080005 | 15 | 29 | 9.7 | 14.5 | 0.00 | 0.00 | 0.00 | 49 | 1006.6 |
| 20260905075505 | 15 | 37 | 8.0 | 12.9 | 0.00 | 0.00 | 0.00 | 49 | 1006.7 |
| 20260905075004 | 15 | 24 | 4.8 | 16.1 | 0.00 | 0.00 | 0.00 | 49 | 1006.7 |
| 20260905074004 | 15 | 26 | 8.0 | 16.1 | 0.00 | 0.00 | 0.00 | 49 | 1006.6 |
| 20260905073505 | 15 | 36 | 8.0 | 11.3 | 0.00 | 0.00 | 0.00 | 49 | 1006.5 |
| 20260905073005 | 15 | 30 | 4.8 | 12.9 | 0.00 | 0.00 | 0.00 | 48 | 1006.5 |
| 20260905072504 | 15 | 26 | 4.8 | 12.9 | 0.00 | 0.00 | 0.00 | 48 | 1006.4 |
| 20260905071004 | 16 | 33 | 4.8 | 9.7 | 0.00 | 0.00 | 0.00 | 47 | 1006.4 |
| 20260905070004 | 16 | 27 | 4.8 | 9.7 | 0.00 | 0.00 | 0.00 | 46 | 1006.5 |
| 20260905065004 | 16 | 17 | 8.0 | 14.5 | 0.00 | 0.00 | 0.00 | 45 | 1006.5 |
| 20260905064504 | 16 | 26 | 4.8 | 14.5 | 0.00 | 0.00 | 0.00 | 45 | 1006.6 |
| 20260905064004 | 16 | 26 | 8.0 | 12.9 | 0.00 | 0.00 | 0.00 | 45 | 1006.7 |
| 20260905063504 | 16 | 20 | 4.8 | 12.9 | 0.00 | 0.00 | 0.00 | 46 | 1006.7 |
| 20260905063004 | 16 | 16 | 1.6 | 4.8 | 0.00 | 0.00 | 0.00 | 46 | 1006.8 |
| 20260905062504 | 16 | 15 | 3.2 | 4.8 | 0.00 | 0.00 | 0.00 | 45 | 1006.7 |
| 20260905062004 | 17 | 17 | 3.2 | 4.8 | 0.00 | 0.00 | 0.00 | 45 | 1006.5 |
| 20260905061504 | 17 | 31 | 1.6 | 11.3 | 0.00 | 0.00 | 0.00 | 45 | 1006.6 |
| 20260905061004 | 17 | 19 | 4.8 | 11.3 | 0.00 | 0.00 | 0.00 | 44 | 1006.4 |
| 20260905060004 | 17 | 21 | 3.2 | 8.0 | 0.00 | 0.00 | 0.00 | 44 | 1006.6 |
| 20260905055004 | 17 | 19 | 4.8 | 12.9 | 0.00 | 0.00 | 0.00 | 43 | 1006.5 |
| 20260905054504 | 17 | 28 | 6.4 | 16.1 | 0.00 | 0.00 | 0.00 | 43 | 1006.5 |
| 20260905054005 | 17 | 35 | 8.0 | 16.1 | 0.00 | 0.00 | 0.00 | 43 | 1006.5 |
| 20260905053504 | 17 | 17 | 4.8 | 19.3 | 0.00 | 0.00 | 0.00 | 43 | 1006.4 |
| 20260905053004 | 17 | 32 | 9.7 | 19.3 | 0.00 | 0.00 | 0.00 | 42 | 1006.3 |
| 20260905052504 | 17 | 24 | 8.0 | 16.1 | 0.00 | 0.00 | 0.00 | 42 | 1006.1 |
| 20260905052004 | 17 | 32 | 6.4 | 16.1 | 0.00 | 0.00 | 0.00 | 42 | 1006.0 |
| 20260905051504 | 17 | 26 | 3.2 | 12.9 | 0.00 | 0.00 | 0.00 | 42 | 1006.1 |
| 20260905051004 | 17 | 31 | 3.2 | 12.9 | 0.00 | 0.00 | 0.00 | 42 | 1006.0 |
| 20260905050004 | 18 | 67 | 4.8 | 9.7 | 0.00 | 0.00 | 0.00 | 41 | 1006.1 |
| 20260905045504 | 18 | 8 | 3.2 | 24.1 | 0.00 | 0.00 | 0.00 | 41 | 1005.9 |
| 20260905045005 | 18 | 338 | 6.4 | 24.1 | 0.00 | 0.00 | 0.00 | 41 | 1005.8 |
| 20260905044504 | 18 | 331 | 9.7 | 24.1 | 0.00 | 0.00 | 0.00 | 41 | 1005.7 |
| 20260905044004 | 18 | 346 | 4.8 | 12.9 | 0.00 | 0.00 | 0.00 | 41 | 1005.6 |
| 20260905043504 | 18 | 2 | 4.8 | 16.1 | 0.00 | 0.00 | 0.00 | 41 | 1005.6 |
| 20260905043004 | 18 | 10 | 8.0 | 16.1 | 0.00 | 0.00 | 0.00 | 41 | 1005.6 |
| 20260905042504 | 18 | 333 | 9.7 | 16.1 | 0.00 | 0.00 | 0.00 | 41 | 1005.5 |
| 20260905042004 | 18 | 343 | 9.7 | 14.5 | 0.00 | 0.00 | 0.00 | 41 | 1005.4 |
| 20260905041504 | 18 | 0 | 8.0 | 16.1 | 0.00 | 0.00 | 0.00 | 40 | 1005.5 |
| 20260905041004 | 18 | 25 | 4.8 | 19.3 | 0.00 | 0.00 | 0.00 | 40 | 1005.5 |
| 20260905040004 | 18 | 4 | 12.9 | 25.7 | 0.00 | 0.00 | 0.00 | 39 | 1005.5 |
| 20260905035004 | 19 | 13 | 14.5 | 25.7 | 0.00 | 0.00 | 0.00 | 38 | 1005.4 |
| 20260905034004 | 20 | 27 | 4.8 | 12.9 | 0.00 | 0.00 | 0.00 | 34 | 1005.1 |
| 20260905033004 | 20 | 310 | 4.8 | 9.7 | 0.00 | 0.00 | 0.00 | 32 | 1004.6 |
| 20260905031504 | 21 | 273 | 4.8 | 9.7 | 0.00 | 0.00 | 0.00 | 28 | 1004.4 |
| 20260905030004 | 21 | 253 | 3.2 | 12.9 | 0.00 | 0.00 | 0.00 | 25 | 1004.3 |
| 20260905025504 | 22 | 249 | 4.8 | 12.9 | 0.00 | 0.00 | 0.00 | 25 | 1004.1 |
| 20260905025004 | 22 | 253 | 8.0 | 14.5 | 0.00 | 0.00 | 0.00 | 24 | 1004.1 |
| 20260905024504 | 22 | 254 | 9.7 | 19.3 | 0.00 | 0.00 | 0.00 | 24 | 1003.9 |
| 20260905024004 | 22 | 253 | 9.7 | 19.3 | 0.00 | 0.00 | 0.00 | 24 | 1003.8 |
| 20260905023505 | 22 | 258 | 12.9 | 19.3 | 0.00 | 0.00 | 0.00 | 23 | 1003.7 |
| 20260905023004 | 22 | 264 | 14.5 | 19.3 | 0.00 | 0.00 | 0.00 | 23 | 1003.6 |
| 20260905022504 | 22 | 273 | 14.5 | 19.3 | 0.00 | 0.00 | 0.00 | 23 | 1003.4 |
| 20260905022004 | 23 | 273 | 14.5 | 19.3 | 0.00 | 0.00 | 0.00 | 23 | 1003.4 |
| 20260905021504 | 23 | 272 | 14.5 | 19.3 | 0.00 | 0.00 | 0.00 | 23 | 1003.3 |
| 20260905021005 | 23 | 272 | 12.9 | 19.3 | 0.00 | 0.00 | 0.00 | 23 | 1003.4 |
| 20260905020004 | 23 | 272 | 11.3 | 19.3 | 0.00 | 0.00 | 0.00 | 23 | 1003.2 |
| 20260905015004 | 23 | 271 | 11.3 | 20.9 | 0.00 | 0.00 | 0.00 | 22 | 1003.1 |
| 20260905014504 | 24 | 274 | 11.3 | 20.9 | 0.00 | 0.00 | 0.00 | 22 | 1003.0 |
| 20260905014004 | 24 | 275 | 14.5 | 20.9 | 0.00 | 0.00 | 0.00 | 21 | 1003.0 |
| 20260905013504 | 25 | 275 | 11.3 | 19.3 | 0.00 | 0.00 | 0.00 | 21 | 1002.9 |
| 20260905013004 | 25 | 288 | 11.3 | 20.9 | 0.00 | 0.00 | 0.00 | 21 | 1002.9 |
| 20260905012504 | 25 | 279 | 14.5 | 20.9 | 0.00 | 0.00 | 0.00 | 21 | 1002.8 |
| 20260905012004 | 25 | 281 | 14.5 | 20.9 | 0.00 | 0.00 | 0.00 | 20 | 1002.7 |
| 20260905011503 | 25 | 290 | 14.5 | 20.9 | 0.00 | 0.00 | 0.00 | 20 | 1002.8 |
| 20260905011004 | 25 | 278 | 11.3 | 24.1 | 0.00 | 0.00 | 0.00 | 20 | 1002.7 |
| 20260905005504 | 26 | 279 | 16.1 | 27.4 | 0.00 | 0.00 | 0.00 | 20 | 1002.4 |
| 20260905005004 | 26 | 287 | 19.3 | 27.4 | 0.00 | 0.00 | 0.00 | 19 | 1002.4 |
| 20260905004504 | 26 | 284 | 20.9 | 25.7 | 0.00 | 0.00 | 0.00 | 20 | 1002.4 |
| 20260905003004 | 26 | 276 | 20.9 | 33.8 | 0.00 | 0.00 | 0.00 | 19 | 1002.2 |
| 20260905002504 | 26 | 282 | 20.9 | 33.8 | 0.00 | 0.00 | 0.00 | 20 | 1002.2 |
| 20260905001504 | 26 | 274 | 22.5 | 37.0 | 0.00 | 0.00 | 0.00 | 19 | 1001.9 |
| 20260904235504 | 27 | 274 | 27.4 | 41.8 | 0.00 | 0.00 | 0.00 | 20 | 1001.6 |
| 20260904235004 | 27 | 283 | 30.6 | 40.2 | 0.00 | 0.00 | 0.00 | 19 | 1001.7 |
| 20260904234504 | 27 | 270 | 27.4 | 38.6 | 0.00 | 0.00 | 0.00 | 19 | 1002.0 |
| 20260904234004 | 27 | 270 | 25.7 | 38.6 | 0.00 | 0.00 | 0.00 | 19 | 1002.0 |
| 20260904233504 | 27 | 255 | 25.7 | 37.0 | 0.00 | 0.00 | 0.00 | 19 | 1002.2 |
| 20260904233004 | 27 | 267 | 25.7 | 37.0 | 0.00 | 0.00 | 0.00 | 18 | 1002.2 |
| 20260904232504 | 27 | 267 | 22.5 | 32.2 | 0.00 | 0.00 | 0.00 | 18 | 1002.3 |
| 20260904232004 | 27 | 237 | 11.3 | 37.0 | 0.00 | 0.00 | 0.00 | 17 | 1002.2 |
| 20260904231504 | 28 | 249 | 22.5 | 37.0 | 0.00 | 0.00 | 0.00 | 17 | 1002.3 |
| 20260904231004 | 28 | 271 | 20.9 | 37.0 | 0.00 | 0.00 | 0.00 | 18 | 1002.3 |
| 20260904230005 | 27 | 247 | 16.1 | 32.2 | 0.00 | 0.00 | 0.00 | 18 | 1002.4 |
| 20260904225504 | 27 | 286 | 16.1 | 32.2 | 0.00 | 0.00 | 0.00 | 19 | 1002.2 |
| 20260904225004 | 28 | 260 | 22.5 | 35.4 | 0.00 | 0.00 | 0.00 | 18 | 1002.3 |
| 20260904224504 | 28 | 238 | 16.1 | 37.0 | 0.00 | 0.00 | 0.00 | 18 | 1002.2 |
| 20260904223504 | 28 | 265 | 16.1 | 32.2 | 0.00 | 0.00 | 0.00 | 18 | 1002.1 |
| 20260904223006 | 28 | 268 | 20.9 | 32.2 | 0.00 | 0.00 | 0.00 | 18 | 1002.1 |
| 20260904222506 | 28 | 244 | 19.3 | 32.2 | 0.00 | 0.00 | 0.00 | 17 | 1002.1 |
| 20260904222006 | 28 | 253 | 17.7 | 35.4 | 0.00 | 0.00 | 0.00 | 18 | 1002.0 |
| 20260904221505 | 28 | 243 | 24.1 | 35.4 | 0.00 | 0.00 | 0.00 | 18 | 1002.0 |
| 20260904221006 | 28 | 260 | 19.3 | 33.8 | 0.00 | 0.00 | 0.00 | 18 | 1002.0 |
| 20260904220006 | 28 | 264 | 20.9 | 37.0 | 0.00 | 0.00 | 0.00 | 18 | 1001.9 |
| 20260904215505 | 28 | 244 | 24.1 | 38.6 | 0.00 | 0.00 | 0.00 | 17 | 1001.9 |
| 20260904215006 | 28 | 241 | 24.1 | 41.8 | 0.00 | 0.00 | 0.00 | 17 | 1002.0 |
| 20260904214005 | 28 | 253 | 20.9 | 37.0 | 0.00 | 0.00 | 0.00 | 18 | 1001.8 |
| 20260904213506 | 28 | 250 | 25.7 | 37.0 | 0.00 | 0.00 | 0.00 | 18 | 1001.9 |
| 20260904213006 | 27 | 234 | 11.3 | 33.8 | 0.00 | 0.00 | 0.00 | 18 | 1001.8 |
| 20260904212506 | 28 | 264 | 22.5 | 33.8 | 0.00 | 0.00 | 0.00 | 18 | 1001.7 |
| 20260904211506 | 28 | 198 | 11.3 | 32.2 | 0.00 | 0.00 | 0.00 | 17 | 1001.8 |
| 20260904211006 | 28 | 228 | 14.5 | 32.2 | 0.00 | 0.00 | 0.00 | 17 | 1001.9 |
| 20260904210005 | 28 | 238 | 17.7 | 32.2 | 0.00 | 0.00 | 0.00 | 17 | 1001.7 |
| 20260904205506 | 28 | 245 | 20.9 | 38.6 | 0.00 | 0.00 | 0.00 | 18 | 1001.7 |
| 20260904205006 | 28 | 244 | 16.1 | 38.6 | 0.00 | 0.00 | 0.00 | 17 | 1001.6 |
| 20260904204506 | 28 | 241 | 14.5 | 24.1 | 0.00 | 0.00 | 0.00 | 16 | 1001.7 |
| 20260904204006 | 28 | 233 | 12.9 | 24.1 | 0.00 | 0.00 | 0.00 | 16 | 1001.7 |
| 20260904203506 | 29 | 163 | 12.9 | 32.2 | 0.00 | 0.00 | 0.00 | 15 | 1001.5 |
| 20260904203006 | 30 | 206 | 16.1 | 46.7 | 0.00 | 0.00 | 0.00 | 15 | 1001.6 |
| 20260904202505 | 30 | 185 | 19.3 | 46.7 | 0.00 | 0.00 | 0.00 | 15 | 1001.6 |
| 20260904202005 | 29 | 176 | 29.0 | 46.7 | 0.00 | 0.00 | 0.00 | 16 | 1001.5 |
| 20260904201506 | 28 | 254 | 19.3 | 33.8 | 0.00 | 0.00 | 0.00 | 17 | 1001.4 |
| 20260904201005 | 28 | 242 | 20.9 | 35.4 | 0.00 | 0.00 | 0.00 | 17 | 1001.5 |
| 20260904200006 | 28 | 247 | 22.5 | 35.4 | 0.00 | 0.00 | 0.00 | 16 | 1001.5 |
| 20260904195506 | 28 | 260 | 20.9 | 32.2 | 0.00 | 0.00 | 0.00 | 17 | 1001.4 |
| 20260904195005 | 27 | 259 | 19.3 | 37.0 | 0.00 | 0.00 | 0.00 | 17 | 1001.5 |
| 20260904194506 | 27 | 252 | 25.7 | 37.0 | 0.00 | 0.00 | 0.00 | 17 | 1001.5 |
| 20260904194006 | 27 | 246 | 20.9 | 33.8 | 0.00 | 0.00 | 0.00 | 17 | 1001.4 |
| 20260904193506 | 27 | 256 | 22.5 | 33.8 | 0.00 | 0.00 | 0.00 | 17 | 1001.5 |
| 20260904193006 | 26 | 265 | 20.9 | 32.2 | 0.00 | 0.00 | 0.00 | 18 | 1001.6 |
| 20260904192506 | 27 | 257 | 22.5 | 32.2 | 0.00 | 0.00 | 0.00 | 18 | 1001.6 |
| 20260904192006 | 27 | 274 | 19.3 | 35.4 | 0.00 | 0.00 | 0.00 | 18 | 1001.5 |
| 20260904191505 | 27 | 270 | 19.3 | 35.4 | 0.00 | 0.00 | 0.00 | 18 | 1001.5 |
| 20260904191006 | 27 | 252 | 16.1 | 35.4 | 0.00 | 0.00 | 0.00 | 19 | 1001.5 |
| 20260904190006 | 26 | 293 | 8.0 | 20.9 | 0.00 | 0.00 | 0.00 | 20 | 1001.7 |
| 20260904185005 | 26 | 270 | 11.3 | 20.9 | 0.00 | 0.00 | 0.00 | 20 | 1001.7 |
| 20260904184006 | 26 | 294 | 1.6 | 12.9 | 0.00 | 0.00 | 0.00 | 20 | 1001.6 |
| 20260904183506 | 25 | 306 | 8.0 | 19.3 | 0.00 | 0.00 | 0.00 | 22 | 1001.7 |
| 20260904183005 | 25 | 305 | 9.7 | 19.3 | 0.00 | 0.00 | 0.00 | 22 | 1001.8 |
| 20260904182006 | 25 | 312 | 11.3 | 22.5 | 0.00 | 0.00 | 0.00 | 22 | 1001.7 |
| 20260904181505 | 25 | 301 | 11.3 | 24.1 | 0.00 | 0.00 | 0.00 | 23 | 1001.7 |
| 20260904181006 | 25 | 305 | 16.1 | 24.1 | 0.00 | 0.00 | 0.00 | 22 | 1001.7 |
| 20260904180005 | 25 | 278 | 9.7 | 25.7 | 0.00 | 0.00 | 0.00 | 22 | 1001.7 |
| 20260904175506 | 25 | 310 | 9.7 | 20.9 | 0.00 | 0.00 | 0.00 | 23 | 1001.9 |
| 20260904174505 | 24 | 303 | 8.0 | 19.3 | 0.00 | 0.00 | 0.00 | 27 | 1001.9 |
| 20260904174006 | 24 | 310 | 9.7 | 19.3 | 0.00 | 0.00 | 0.00 | 26 | 1001.9 |
| 20260904173506 | 24 | 275 | 12.9 | 19.3 | 0.00 | 0.00 | 0.00 | 25 | 1001.8 |
| 20260904173006 | 23 | 285 | 6.4 | 16.1 | 0.00 | 0.00 | 0.00 | 27 | 1001.8 |
| 20260904172006 | 23 | 307 | 9.7 | 19.3 | 0.00 | 0.00 | 0.00 | 26 | 1001.7 |
| 20260904171006 | 23 | 299 | 8.0 | 12.9 | 0.00 | 0.00 | 0.00 | 24 | 1001.6 |
| 20260904170006 | 22 | 10 | 0.0 | 4.8 | 0.00 | 0.00 | 0.00 | 24 | 1001.5 |
| 20260904165505 | 22 | 11 | 1.6 | 4.8 | 0.00 | 0.00 | 0.00 | 27 | 1001.5 |
| 20260904165005 | 21 | 11 | 0.0 | 4.8 | 0.00 | 0.00 | 0.00 | 28 | 1001.5 |
| 20260904164505 | 21 | 11 | 0.0 | 8.0 | 0.00 | 0.00 | 0.00 | 29 | 1001.5 |
| 20260904164005 | 21 | 10 | 4.8 | 8.0 | 0.00 | 0.00 | 0.00 | 31 | 1001.5 |
| 20260904163505 | 21 | 21 | 3.2 | 12.9 | 0.00 | 0.00 | 0.00 | 31 | 1001.6 |
| 20260904163006 | 20 | 329 | 3.2 | 12.9 | 0.00 | 0.00 | 0.00 | 31 | 1001.6 |
| 20260904162505 | 20 | 2 | 4.8 | 12.9 | 0.00 | 0.00 | 0.00 | 32 | 1001.5 |
| 20260904162006 | 20 | 13 | 4.8 | 12.9 | 0.00 | 0.00 | 0.00 | 33 | 1001.3 |
| 20260904161506 | 20 | 15 | 4.8 | 12.9 | 0.00 | 0.00 | 0.00 | 33 | 1001.3 |
| 20260904161005 | 19 | 26 | 4.8 | 16.1 | 0.00 | 0.00 | 0.00 | 35 | 1001.3 |
| 20260904160005 | 19 | 11 | 4.8 | 16.1 | 0.00 | 0.00 | 0.00 | 36 | 1001.3 |
| 20260904155006 | 19 | 0 | 6.4 | 16.1 | 0.00 | 0.00 | 0.00 | 36 | 1001.2 |
| 20260904154506 | 19 | 339 | 8.0 | 16.1 | 0.00 | 0.00 | 0.00 | 37 | 1001.2 |
| 20260904154006 | 19 | 329 | 8.0 | 14.5 | 0.00 | 0.00 | 0.00 | 37 | 1001.1 |
| 20260904153006 | 18 | 320 | 8.0 | 19.3 | 0.00 | 0.00 | 0.00 | 39 | 1001.2 |
| 20260904151505 | 17 | 351 | 4.8 | 22.5 | 0.00 | 0.00 | 0.00 | 39 | 1001.0 |
| 20260904151006 | 17 | 358 | 8.0 | 24.1 | 0.00 | 0.00 | 0.00 | 40 | 1001.2 |
| 20260904150006 | 19 | 306 | 3.2 | 19.3 | 0.00 | 0.00 | 0.00 | 35 | 1001.1 |
| 20260904145505 | 18 | 157 | 11.3 | 22.5 | 0.00 | 0.00 | 0.00 | 36 | 1000.9 |
| 20260904145006 | 18 | 150 | 14.5 | 22.5 | 0.00 | 0.00 | 0.00 | 37 | 1000.9 |
| 20260904144505 | 17 | 166 | 14.5 | 20.9 | 0.00 | 0.00 | 0.00 | 38 | 1001.1 |
| 20260904144006 | 17 | 167 | 11.3 | 19.3 | 0.00 | 0.00 | 0.00 | 39 | 1001.2 |